Location: *
(44.3925°N, 5.4708°E)
Time: 08:00:07
(UTC+00:00)

ERS-1 Rocket - Pass Details

Date: 18 September 2019
Orbit: 754 x 757 km, 98.5° (Epoch: 22 October)

Event Time Altitude Azimuth Distance (km) Brightness Sun altitude
Exits shadow 20:20:35 27° 32° (NNE) 1,433 4.4 -27.2°
Drops below altitude 10° 20:23:26 10° 4° (N) 2,292 5.8 -27.7°
Sets 20:25:55 0° 355° (N) 3,222 6.8 -28.0°
